Location: Cherry Springs State Park
(41.6616°N, 77.8240°W)
Time: 07:57:04
(UTC-04:00)

Amateur Radio Satellites - All Passes

Search period start: 28 September 2016 07:27
Search period end: 29 September 2016 07:27
Location: Cherry Springs State Park, 41.6616°N, 77.8240°W

Satellite Date Start Highest point End Downlink Frequencies (MHz)
Time Altitude Azimuth
NOAA 15 28 Sep 07:28:52 07:34:12 82° 104° (ESE) 07:39:29 137.62
PCSat 28 Sep 07:34:25 07:35:18 10° 327° (NNW) 07:36:12 145.827
Cubesat XI-IV 28 Sep 07:45:47 07:51:10 87° 285° (WNW) 07:56:33 437.490
CUTE-I 28 Sep 07:45:52 07:51:15 86° 285° (WNW) 07:56:37 437.470
GONETS M04 28 Sep 07:48:54 07:55:18 23° 79° (E) 08:01:43
AO-7 28 Sep 07:52:03 07:55:29 13° 317° (NW) 07:58:55 29.400- 29.500
CINEMA 3 28 Sep 07:59:59 08:02:57 19° 93° (E) 08:05:57 145.822/145.860
GOMX 1 28 Sep 08:06:43 08:10:46 36° 290° (WNW) 08:14:39 467.674
HORYU 2 28 Sep 08:09:52 08:10:20 10° 300° (WNW) 08:10:48 437.375
CUTE 1.7 + AOD 2 28 Sep 08:12:36 08:15:42 19° 93° (E) 08:18:47 437.475
CANX-2 28 Sep 08:13:39 08:17:04 23° 94° (E) 08:20:29 2200.000
SEEDS 28 Sep 08:14:21 08:16:31 14° 90° (E) 08:18:41 437.485
BRITE-PL 28 Sep 08:20:06 08:22:38 14° 300° (WNW) 08:25:05 437.365/2234.400
DOVE 4 28 Sep 08:26:34 08:30:39 52° 287° (WNW) 08:34:39 437.250
NOAA 18 28 Sep 08:29:14 08:34:28 48° 291° (WNW) 08:39:42 137.9125
AAUSAT CUBESAT 2 28 Sep 08:36:29 08:38:17 12° 90° (E) 08:40:05 437.432
HO-68 28 Sep 08:38:13 08:44:59 43° 99° (E) 08:51:42 435.675
DANDE 28 Sep 08:44:36 08:51:45 32° 275° (W) 08:58:28 436.750
LilacSat-2 28 Sep 08:50:04 08:51:34 12° 296° (WNW) 08:53:03 437.200
O/OREOS (USA 219) 28 Sep 08:56:22 09:00:04 24° 303° (WNW) 09:03:49 437.305
STRAND 1 28 Sep 09:03:07 09:06:14 16° 269° (W) 09:09:22 437.568
CUBEBUG 2 28 Sep 09:05:07 09:08:47 27° 96° (E) 09:12:30 437.445
PRISM 28 Sep 09:08:00 09:12:09 72° 75° (ENE) 09:16:20 437.425
NOAA 15 28 Sep 09:10:32 09:13:15 14° 301° (WNW) 09:15:59 137.62
FUNcube-1 28 Sep 09:10:46 09:12:24 12° 90° (E) 09:14:02 145.935
Cosmos 2499 28 Sep 09:17:47 09:24:52 69° 94° (E) 09:31:53 435.465 / 435.565
COMPASS 1 28 Sep 09:19:12 09:23:19 49° 99° (E) 09:27:24 437.405
UWE-3 28 Sep 09:22:34 09:26:17 27° 96° (E) 09:30:03 435.000/436.395/437.385
BEESAT 3 28 Sep 09:24:20 09:27:43 26° 48° (NE) 09:31:06 437.485
Cubesat XI-IV 28 Sep 09:28:13 09:30:26 13° 302° (WNW) 09:32:38 437.490
CUTE-I 28 Sep 09:28:20 09:30:28 12° 302° (WNW) 09:32:36 437.470
CINEMA 3 28 Sep 09:36:25 09:40:13 35° 289° (WNW) 09:44:05 145.822/145.860
UNISAT 6 28 Sep 09:41:23 09:44:33 21° 67° (ENE) 09:47:44 437.425
GONETS M04 28 Sep 09:42:18 09:51:08 76° 279° (W) 10:00:03
CUTE 1.7 + AOD 2 28 Sep 09:47:41 09:51:39 37° 289° (WNW) 09:55:36 437.475
SEEDS 28 Sep 09:48:22 09:52:32 51° 286° (WNW) 09:56:39 437.485
Oscar 11 28 Sep 09:48:35 09:52:30 32° 96° (E) 09:56:24 145.826/435.025
CANX-2 28 Sep 09:49:08 09:52:56 31° 290° (WNW) 09:56:45 2200.000
ZACube-1 28 Sep 09:51:01 09:55:01 35° 98° (E) 09:59:04 437.345
DELFI C3 28 Sep 09:53:36 09:55:35 13° 91° (E) 09:57:34 145.870
AAUSAT CUBESAT 2 28 Sep 10:09:59 10:14:05 54° 286° (WNW) 10:18:10 437.432
HUMSAT D 28 Sep 10:10:51 10:11:55 11° 90° (E) 10:13:00 437.325/437.525
PHONESAT 2.4 28 Sep 10:12:13 10:12:50 10° 148° (SSE) 10:13:28 2401.200-2431.200
ANTELSAT 28 Sep 10:15:41 10:19:46 47° 72° (ENE) 10:23:52 437.575/2403.000
BEESAT 2 28 Sep 10:20:15 10:24:09 47° 53° (NE) 10:28:02 435.950
HO-68 28 Sep 10:26:07 10:32:34 38° 297° (WNW) 10:39:00 435.675
TIGRISAT 28 Sep 10:35:56 10:40:11 76° 75° (ENE) 10:44:26 435.000
CUBEBUG 2 28 Sep 10:41:44 10:45:20 27° 291° (WNW) 10:49:02 437.445
FUNcube-1 28 Sep 10:44:43 10:49:00 62° 285° (WNW) 10:53:22 145.935
DUCHIFAT 1 28 Sep 10:49:21 10:51:21 13° 63° (ENE) 10:53:21 145.980
QB50P1 28 Sep 10:51:16 10:53:51 16° 65° (ENE) 10:56:27 145.935-145.965
COMPASS 1 28 Sep 10:56:00 10:58:27 15° 296° (WNW) 11:00:52 437.405
UWE-3 28 Sep 10:59:03 11:02:40 27° 291° (WNW) 11:06:21 435.000/436.395/437.385
JAS-2 28 Sep 11:00:58 11:06:20 27° 59° (ENE) 11:12:11 435.910
BEESAT 3 28 Sep 11:01:52 11:05:22 30° 245° (WSW) 11:08:50 437.485
POPSAT HIP 1 28 Sep 11:04:07 11:07:19 21° 67° (ENE) 11:10:30 437.405
Cosmos 2499 28 Sep 11:13:33 11:18:39 21° 294° (WNW) 11:23:45 435.465 / 435.565
UNISAT 6 28 Sep 11:17:11 11:21:05 34° 263° (W) 11:24:58 437.425
NANOSAT C BR1 28 Sep 11:19:36 11:23:15 30° 69° (ENE) 11:26:54 145.865
Oscar 11 28 Sep 11:25:00 11:28:28 23° 293° (WNW) 11:31:55 145.826/435.025
DELFI C3 28 Sep 11:26:48 11:30:40 46° 287° (WNW) 11:34:30 145.870
ZACube-1 28 Sep 11:27:49 11:31:05 21° 293° (WNW) 11:34:24 437.345
QB50P2 28 Sep 11:42:52 11:47:01 62° 75° (ENE) 11:51:11 145.880/145.840
HUMSAT D 28 Sep 11:43:42 11:47:56 65° 285° (WNW) 11:52:10 437.325/437.525
GONETS M04 28 Sep 11:44:38 11:49:38 16° 301° (WNW) 11:54:40
POLYITAN 1 28 Sep 11:45:05 11:49:14 62° 74° (ENE) 11:53:23 437.675
PHONESAT 2.4 28 Sep 11:45:40 11:48:26 39° 164° (SSE) 11:51:14 2401.200-2431.200
ANTELSAT 28 Sep 11:54:22 11:56:45 15° 269° (W) 11:59:08 437.575/2403.000
BEESAT 2 28 Sep 11:59:09 12:01:35 16° 250° (WSW) 12:04:00 435.950
DX 1 28 Sep 12:20:25 12:22:29 13° 91° (E) 12:24:32 434.975-435.025
DUCHIFAT 1 28 Sep 12:22:28 12:26:34 56° 260° (W) 12:30:41 145.980
BUGSAT 1 28 Sep 12:22:56 12:26:57 57° 74° (ENE) 12:30:58 437.445
QB50P1 28 Sep 12:25:13 12:29:16 45° 261° (W) 12:33:19 145.935-145.965
VELOX 1 28 Sep 12:28:46 12:32:31 27° 96° (E) 12:36:13 145.980
ESTCUBE 1 28 Sep 12:30:59 12:35:29 60° 100° (E) 12:39:57 437.505/2401.250
CUBEBUG 1 28 Sep 12:31:31 12:35:35 37° 98° (E) 12:39:35 437.445
POPSAT HIP 1 28 Sep 12:39:07 12:42:54 32° 263° (W) 12:46:42 437.405
JAS-2 28 Sep 12:44:20 12:50:43 62° 260° (W) 12:57:58 435.910
AIST 2 28 Sep 12:46:20 12:50:29 59° 54° (NE) 12:54:38 435.215
50 SAT 28 Sep 12:47:46 12:51:15 40° 98° (E) 12:54:42 437.505
PCSat 28 Sep 12:49:59 12:54:21 24° 46° (NE) 12:58:41 145.827
Oscar 19 28 Sep 12:51:26 12:55:47 27° 66° (ENE) 13:00:07 437.125/150
NANOSAT C BR1 28 Sep 12:55:39 12:58:59 23° 265° (W) 13:02:20 145.865
M-CUBED/EXP-1 PRIME 28 Sep 12:58:17 13:00:52 22° 101° (E) 13:03:29 437.505
SPROUT 28 Sep 13:09:59 13:14:02 42° 99° (E) 13:18:04 437.525
AO-7 28 Sep 13:18:08 13:20:14 11° 41° (NE) 13:22:21 29.400- 29.500
AISAT 28 Sep 13:21:04 13:25:29 77° 284° (WNW) 13:29:50 437.250
PHONESAT 2.4 28 Sep 13:21:29 13:24:25 71° 179° (S) 13:27:21 2401.200-2431.200
QB50P2 28 Sep 13:22:01 13:23:13 11° 270° (W) 13:24:24 145.880/145.840
POLYITAN 1 28 Sep 13:24:18 13:25:25 11° 270° (W) 13:26:34 437.675
UKube-1 28 Sep 13:25:04 13:29:17 52° 100° (E) 13:33:29 .
YUBILEINY 28 Sep 13:34:04 13:41:42 33° 69° (ENE) 13:49:16 435.215
Cosmos 2491 28 Sep 13:34:44 13:38:51 14° 74° (ENE) 13:43:00 435.465 / 435.565
ITAMSAT 1 28 Sep 13:48:11 13:50:26 13° 58° (ENE) 13:52:42 435.822/435.867
Gurwin Techsat 1B 28 Sep 13:52:36 13:57:40 48° 71° (ENE) 14:02:46 435.225
AUBIESAT-1 28 Sep 13:54:16 13:57:34 76° 289° (WNW) 14:00:52 437.475
DX 1 28 Sep 13:54:45 13:59:01 55° 287° (WNW) 14:03:14 434.975-435.025
BUGSAT 1 28 Sep 14:01:22 14:02:40 11° 269° (W) 14:03:57 437.445
VELOX 1 28 Sep 14:05:09 14:08:54 28° 292° (WNW) 14:12:39 145.980
Cosmos 2504 28 Sep 14:07:25 14:12:21 18° 65° (ENE) 14:17:25 435.465 / 435.565
CUBEBUG 1 28 Sep 14:08:26 14:11:36 20° 294° (WNW) 14:14:44 437.445
ESTCUBE 1 28 Sep 14:09:18 14:11:47 15° 297° (WNW) 14:14:15 437.505/2401.250
50 SAT 28 Sep 14:22:31 14:24:23 14° 295° (WNW) 14:26:15 437.505
AIST 2 28 Sep 14:26:24 14:28:29 13° 251° (WSW) 14:30:33 435.215
TISAT 1 28 Sep 14:28:15 14:32:24 61° 101° (E) 14:36:31 437.305
Oscar 19 28 Sep 14:30:06 14:34:55 38° 263° (W) 14:39:46 437.125/150
PCSat 28 Sep 14:32:48 14:38:08 58° 245° (WSW) 14:43:25 145.827
M-CUBED/EXP-1 PRIME 28 Sep 14:32:59 14:35:20 19° 297° (WNW) 14:37:41 437.505
SPROUT 28 Sep 14:46:49 14:49:38 18° 295° (WNW) 14:52:29 437.525
PHONESAT 2.4 28 Sep 14:57:35 15:00:23 40° 197° (SSW) 15:03:12 2401.200-2431.200
UKube-1 28 Sep 15:02:25 15:04:54 15° 297° (WNW) 15:07:22 .
AO-7 28 Sep 15:03:09 15:10:58 48° 63° (ENE) 15:18:49 29.400- 29.500
ITUPSAT 1 28 Sep 15:03:24 15:07:30 27° 96° (E) 15:11:34 437.325
SWISSCUBE 28 Sep 15:15:51 15:20:24 41° 99° (E) 15:24:55 437.505
ITAMSAT 1 28 Sep 15:23:59 15:29:09 87° 254° (WSW) 15:34:23 435.822/435.867
Cosmos 2491 28 Sep 15:25:20 15:34:05 77° 94° (E) 15:42:55 435.465 / 435.565
BEESAT 28 Sep 15:28:40 15:33:21 50° 100° (E) 15:37:59 436.000
YUBILEINY 28 Sep 15:30:28 15:38:53 56° 270° (W) 15:47:16 435.215
Gurwin Techsat 1B 28 Sep 15:33:49 15:37:51 22° 267° (W) 15:41:54 435.225
SO-50 28 Sep 15:46:29 15:51:19 83° 123° (ESE) 15:56:08 436.795
Cosmos 2504 28 Sep 15:59:07 16:06:35 84° 264° (W) 16:14:34 435.465 / 435.565
TISAT 1 28 Sep 16:05:47 16:07:31 12° 298° (WNW) 16:09:16 437.305
BRITE-PL 28 Sep 16:15:31 16:17:26 12° 59° (ENE) 16:19:20 437.365/2234.400
PHONESAT 2.4 28 Sep 16:35:04 16:36:01 11° 211° (SSW) 16:36:57 2401.200-2431.200
ITUPSAT 1 28 Sep 16:41:03 16:45:20 33° 292° (WNW) 16:49:36 437.325
MOZHAYETS 4 28 Sep 16:49:13 16:53:50 62° 101° (E) 16:58:26
SWISSCUBE 28 Sep 16:54:13 16:57:55 22° 295° (WNW) 17:01:36 437.505
AO-7 28 Sep 16:56:10 17:03:49 40° 261° (W) 17:11:31 29.400- 29.500
AIST 1 28 Sep 17:04:50 17:09:07 72° 264° (W) 17:13:21
BEESAT 28 Sep 17:07:25 17:10:44 19° 297° (WNW) 17:14:03 436.000
KKS-1 28 Sep 17:09:43 17:14:07 62° 101° (ESE) 17:18:30 437.445
NOAA 15 28 Sep 17:11:39 17:15:10 18° 61° (ENE) 17:18:43 137.62
Cosmos 2491 28 Sep 17:25:09 17:31:53 24° 296° (WNW) 17:38:42 435.465 / 435.565
O/OREOS (USA 219) 28 Sep 17:25:47 17:30:24 73° 66° (ENE) 17:34:58 437.305
HORYU 2 28 Sep 17:27:55 17:32:18 82° 77° (ENE) 17:36:45 437.375
SO-50 28 Sep 17:29:16 17:32:24 17° 321° (NW) 17:35:31 436.795
CUTE-I 28 Sep 17:29:46 17:33:42 21° 63° (ENE) 17:37:37 437.470
Cubesat XI-IV 28 Sep 17:29:52 17:33:47 21° 63° (ENE) 17:37:42 437.490
GOMX 1 28 Sep 17:36:32 17:40:58 27° 68° (ENE) 17:45:13 467.674
STARS 28 Sep 17:41:27 17:45:48 66° 102° (ESE) 17:50:08 437.465
BRITE-PL 28 Sep 17:49:19 17:55:00 76° 75° (ENE) 18:00:35 437.365/2234.400
Cosmos 2504 28 Sep 17:55:16 17:58:51 14° 282° (WNW) 18:02:33 435.465 / 435.565
DOVE 4 28 Sep 17:55:43 17:58:53 17° 65° (ENE) 18:01:56 437.250
LilacSat-2 28 Sep 17:56:24 17:59:33 26° 70° (ENE) 18:02:44 437.200
GONETS M04 28 Sep 18:00:14 18:01:59 11° 53° (NE) 18:03:45
CUBESAT XI-V 28 Sep 18:10:53 18:15:32 59° 101° (E) 18:20:07 437.345
NOAA 18 28 Sep 18:15:31 18:20:41 45° 69° (ENE) 18:25:52 137.9125
MOZHAYETS 4 28 Sep 18:27:54 18:30:29 15° 297° (WNW) 18:33:03
CUSAT 1 28 Sep 18:31:40 18:36:46 26° 82° (E) 18:42:38 437.405
KKS-1 28 Sep 18:47:58 18:50:10 14° 298° (WNW) 18:52:22 437.445
NOAA 15 28 Sep 18:49:11 18:54:25 63° 258° (WSW) 18:59:44 137.62
CINEMA 3 28 Sep 19:02:06 19:05:14 19° 67° (ENE) 19:08:17 145.822/145.860
CUTE 1.7 + AOD 2 28 Sep 19:06:17 19:08:40 15° 64° (ENE) 19:11:03 437.475
CANX-2 28 Sep 19:07:13 19:10:00 17° 65° (ENE) 19:12:49 2200.000
HO-68 28 Sep 19:07:21 19:13:35 34° 62° (ENE) 19:19:51 435.675
Cosmos 2499 28 Sep 19:07:53 19:13:52 24° 68° (ENE) 19:20:08 435.465 / 435.565
O/OREOS (USA 219) 28 Sep 19:07:57 19:09:07 11° 263° (W) 19:10:17 437.305
SEEDS 28 Sep 19:08:01 19:08:49 10° 61° (ENE) 19:09:37 437.485
CUTE-I 28 Sep 19:08:12 19:13:21 52° 260° (W) 19:18:33 437.470
Cubesat XI-IV 28 Sep 19:08:17 19:13:27 52° 260° (W) 19:18:40 437.490
GOMX 1 28 Sep 19:13:47 19:18:50 40° 263° (W) 19:23:42 467.674
STARS 28 Sep 19:19:41 19:21:36 13° 298° (WNW) 19:23:31 437.465
BRITE-PL 28 Sep 19:30:40 19:33:56 15° 271° (W) 19:37:10 437.365/2234.400
LilacSat-2 28 Sep 19:30:58 19:33:50 20° 266° (W) 19:36:43 437.200
DOVE 4 28 Sep 19:31:15 19:36:11 56° 260° (W) 19:40:52 437.250
STRAND 1 28 Sep 19:32:45 19:36:31 20° 93° (E) 19:40:15 437.568
RS-15 28 Sep 19:34:51 19:45:27 45° 108° (ESE) 19:56:32 29.354- 29.394
CUBESAT XI-V 28 Sep 19:49:38 19:52:25 16° 297° (WNW) 19:55:09 437.345
GONETS M04 28 Sep 19:52:30 20:01:10 56° 77° (ENE) 20:09:42
NOAA 18 28 Sep 19:57:08 20:01:31 24° 265° (W) 20:05:55 137.9125
CUBEBUG 2 28 Sep 20:03:56 20:07:12 22° 68° (ENE) 20:10:27 437.445
DANDE 28 Sep 20:09:05 20:14:07 55° 92° (E) 20:20:47 436.750
COMPASS 1 28 Sep 20:10:01 20:13:46 33° 71° (ENE) 20:17:34 437.405
CUSAT 1 28 Sep 20:11:46 20:18:01 61° 285° (WNW) 20:25:39 437.405
UWE-3 28 Sep 20:20:18 20:23:31 22° 68° (ENE) 20:26:45 435.000/436.395/437.385
CINEMA 3 28 Sep 20:37:56 20:42:08 39° 262° (W) 20:46:12 145.822/145.860
SEEDS 28 Sep 20:39:40 20:43:52 75° 259° (W) 20:48:07 437.485
CUTE 1.7 + AOD 2 28 Sep 20:39:57 20:44:03 51° 260° (W) 20:48:14 437.475
CANX-2 28 Sep 20:41:31 20:45:32 42° 262° (W) 20:49:36 2200.000
ISS 28 Sep 20:41:43 20:44:57 70° 143° (SE) 20:48:12 145.825
Oscar 11 28 Sep 20:43:42 20:47:14 26° 68° (ENE) 20:50:49 145.826/435.025
ZACube-1 28 Sep 20:47:23 20:50:53 27° 69° (ENE) 20:54:24 437.345
HO-68 28 Sep 20:54:10 21:01:03 49° 260° (W) 21:07:59 435.675
AAUSAT CUBESAT 2 28 Sep 20:59:45 21:03:55 84° 260° (W) 21:08:08 437.432
Cosmos 2499 28 Sep 21:00:00 21:07:30 67° 266° (W) 21:15:36 435.465 / 435.565
STRAND 1 28 Sep 21:10:58 21:15:56 49° 289° (WNW) 21:20:53 437.568
AO-85 28 Sep 21:27:01 21:32:14 78° 120° (ESE) 21:37:08 145.980
CUBEBUG 2 28 Sep 21:40:00 21:43:42 30° 264° (W) 21:47:22 437.445
FUNcube-1 28 Sep 21:40:13 21:44:20 80° 257° (WSW) 21:48:30 145.935
RS-15 28 Sep 21:46:02 21:57:33 60° 312° (NW) 22:09:41 29.354- 29.394
COMPASS 1 28 Sep 21:46:18 21:49:24 20° 267° (W) 21:52:32 437.405
GONETS M04 28 Sep 21:50:02 21:57:29 32° 277° (W) 22:04:52
DANDE 28 Sep 21:53:08 21:57:35 24° 298° (WNW) 22:02:58 436.750
UWE-3 28 Sep 21:56:11 21:59:50 30° 264° (W) 22:03:30 435.000/436.395/437.385
CUSAT 1 28 Sep 21:59:15 22:01:58 12° 307° (NW) 22:04:49 437.405
DELFI C3 28 Sep 22:12:06 22:16:06 83° 258° (WSW) 22:20:08 145.870
ISS 28 Sep 22:19:03 22:21:43 23° 341° (NNW) 22:24:23 145.825
Oscar 11 28 Sep 22:19:33 22:23:16 28° 264° (W) 22:27:01 145.826/435.025
ZACube-1 28 Sep 22:23:47 22:27:09 24° 265° (W) 22:30:31 437.345
PRISM 28 Sep 22:24:26 22:28:35 71° 285° (WNW) 22:32:39 437.425
TIGRISAT 28 Sep 22:28:05 22:30:46 16° 92° (E) 22:33:27 435.000
HUMSAT D 28 Sep 22:34:46 22:38:51 86° 72° (ENE) 22:42:59 437.325/437.525
SO-50 28 Sep 22:39:01 22:41:14 13° 36° (NE) 22:43:27 436.795
AISAT 28 Sep 22:46:14 22:46:49 10° 60° (ENE) 22:47:25 437.250
Cosmos 2499 28 Sep 22:57:55 22:59:15 10° 284° (WNW) 23:00:35 435.465 / 435.565
UNISAT 6 28 Sep 23:07:48 23:12:02 44° 99° (E) 23:16:21 437.425
AUBIESAT-1 28 Sep 23:08:17 23:09:49 12° 60° (ENE) 23:11:19 437.475
AO-85 28 Sep 23:09:40 23:13:10 18° 318° (NW) 23:16:32 145.980
DX 1 28 Sep 23:16:37 23:18:41 13° 62° (ENE) 23:20:44 434.975-435.025
50 SAT 28 Sep 23:25:11 23:27:48 19° 67° (ENE) 23:30:27 437.505
VELOX 1 28 Sep 23:26:16 23:29:56 25° 67° (ENE) 23:33:36 145.980
CUBEBUG 1 28 Sep 23:27:31 23:31:28 33° 69° (ENE) 23:35:25 437.445
ESTCUBE 1 28 Sep 23:30:22 23:34:48 56° 73° (ENE) 23:39:16 437.505/2401.250
ANTELSAT 28 Sep 23:43:03 23:47:28 77° 285° (WNW) 23:51:59 437.575/2403.000
M-CUBED/EXP-1 PRIME 28 Sep 23:44:05 23:47:52 37° 67° (ENE) 23:51:24 437.505
JAS-2 28 Sep 23:54:14 00:00:24 25° 89° (E) 00:06:18 435.910
ISS 28 Sep 23:57:12 23:59:05 14° 1° (N) 00:00:59 145.825
TIGRISAT 29 Sep 00:03:26 00:07:41 49° 287° (WNW) 00:12:01 435.000
SPROUT 29 Sep 00:03:38 00:07:27 33° 70° (ENE) 00:11:16 437.525
RS-15 29 Sep 00:03:44 00:13:25 27° 342° (NNW) 00:23:23 29.354- 29.394
DUCHIFAT 1 29 Sep 00:06:48 00:10:02 21° 94° (E) 00:13:15 145.980
QB50P1 29 Sep 00:09:49 00:13:24 26° 96° (E) 00:16:57 145.935-145.965
SO-50 29 Sep 00:17:56 00:22:32 76° 57° (ENE) 00:27:00 436.795
AISAT 29 Sep 00:18:08 00:22:35 86° 257° (WSW) 00:27:04 437.250
UKube-1 29 Sep 00:19:31 00:23:38 45° 71° (ENE) 00:27:46 .
POPSAT HIP 1 29 Sep 00:23:12 00:27:06 36° 98° (E) 00:31:01 437.405
NANOSAT C BR1 29 Sep 00:38:38 00:42:45 52° 100° (E) 00:46:52 145.865
AUBIESAT-1 29 Sep 00:39:54 00:43:55 58° 254° (WSW) 00:47:39 437.475
UNISAT 6 29 Sep 00:45:25 00:48:26 18° 295° (WNW) 00:51:29 437.425
DX 1 29 Sep 00:50:00 00:54:20 64° 258° (WSW) 00:58:42 434.975-435.025
BEESAT 3 29 Sep 00:51:54 00:55:32 39° 116° (ESE) 00:59:12 437.485
50 SAT 29 Sep 00:58:00 01:01:07 27° 263° (W) 01:04:17 437.505
VELOX 1 29 Sep 01:02:20 01:06:16 30° 263° (W) 01:10:13 145.980
QB50P2 29 Sep 01:03:03 01:07:16 71° 286° (WNW) 01:11:29 145.880/145.840
CUBEBUG 1 29 Sep 01:04:16 01:07:47 23° 266° (W) 01:11:17 437.445
POLYITAN 1 29 Sep 01:05:16 01:09:28 71° 286° (WNW) 01:13:41 437.675
ESTCUBE 1 29 Sep 01:09:30 01:11:57 14° 269° (W) 01:14:23 437.505/2401.250
M-CUBED/EXP-1 PRIME 29 Sep 01:19:39 01:22:27 18° 260° (W) 01:25:07 437.505
TISAT 1 29 Sep 01:19:50 01:23:50 45° 72° (ENE) 01:27:50 437.305
ISS 29 Sep 01:33:40 01:36:27 24° 21° (NNE) 01:39:13 145.825
Cosmos 2491 29 Sep 01:35:47 01:43:56 39° 72° (ENE) 01:51:59 435.465 / 435.565
JAS-2 29 Sep 01:38:08 01:46:00 71° 288° (WNW) 01:53:26 435.910
BUGSAT 1 29 Sep 01:39:31 01:43:33 83° 284° (WNW) 01:47:35 437.445
SPROUT 29 Sep 01:40:10 01:43:26 21° 266° (W) 01:46:43 437.525
DUCHIFAT 1 29 Sep 01:42:02 01:45:46 32° 290° (WNW) 01:49:29 145.980
QB50P1 29 Sep 01:45:35 01:49:05 26° 292° (WNW) 01:52:35 145.935-145.965
BEESAT 2 29 Sep 01:49:20 01:53:15 84° 122° (ESE) 01:57:15 435.950
UKube-1 29 Sep 01:57:11 01:59:54 16° 267° (W) 02:02:36 .
POPSAT HIP 1 29 Sep 01:59:37 02:02:39 20° 294° (WNW) 02:05:40 437.405
SO-50 29 Sep 02:00:51 02:02:18 11° 253° (WSW) 02:03:46 436.795
Gurwin Techsat 1B 29 Sep 02:09:29 02:13:07 18° 92° (E) 02:16:44 435.225
ITUPSAT 1 29 Sep 02:10:16 02:14:30 33° 68° (ENE) 02:18:45 437.325
NANOSAT C BR1 29 Sep 02:15:48 02:18:02 14° 296° (WNW) 02:20:17 145.865
RS-15 29 Sep 02:21:38 02:31:35 27° 18° (NNE) 02:41:32 29.354- 29.394
SWISSCUBE 29 Sep 02:22:20 02:26:53 48° 71° (ENE) 02:31:29 437.505
BEESAT 3 29 Sep 02:30:18 02:33:19 21° 315° (NW) 02:36:22 437.485
BEESAT 29 Sep 02:35:04 02:39:43 59° 73° (ENE) 02:44:26 436.000
YUBILEINY 29 Sep 02:35:30 02:43:15 37° 85° (E) 02:50:59 435.215
Oscar 19 29 Sep 02:40:55 02:46:05 75° 102° (ESE) 02:51:12 437.125/150
AIST 2 29 Sep 02:46:54 02:48:05 11° 108° (ESE) 02:49:16 435.215
Cosmos 2504 29 Sep 02:50:13 02:53:00 13° 77° (ENE) 02:55:46 435.465 / 435.565
TISAT 1 29 Sep 02:57:17 02:59:42 15° 268° (W) 03:02:07 437.305
AO-7 29 Sep 03:07:35 03:10:35 12° 87° (E) 03:13:33 29.400- 29.500
ISS 29 Sep 03:09:54 03:13:08 59° 219° (SW) 03:16:22 145.825
JAS-2 29 Sep 03:25:12 03:29:34 16° 307° (NW) 03:33:54 435.910
BEESAT 2 29 Sep 03:29:48 03:31:38 13° 320° (NW) 03:33:28 435.950
Cosmos 2491 29 Sep 03:32:34 03:40:54 48° 272° (W) 03:49:10 435.465 / 435.565
PCSat 29 Sep 03:33:20 03:36:48 17° 105° (ESE) 03:40:17 145.827
ITAMSAT 1 29 Sep 03:36:52 03:41:33 32° 97° (E) 03:46:13 435.822/435.867
Gurwin Techsat 1B 29 Sep 03:48:12 03:53:25 57° 288° (WNW) 03:58:36 435.225
ITUPSAT 1 29 Sep 03:48:20 03:52:20 27° 265° (W) 03:56:23 437.325
MOZHAYETS 4 29 Sep 03:51:01 03:55:30 59° 74° (ENE) 04:00:02
SWISSCUBE 29 Sep 04:01:44 04:04:56 18° 268° (W) 04:08:10 437.505
KKS-1 29 Sep 04:07:40 04:12:01 58° 73° (ENE) 04:16:24 437.445
BEESAT 29 Sep 04:15:14 04:17:53 15° 269° (W) 04:20:32 436.000
AO-85 29 Sep 04:21:35 04:21:54 10° 33° (NNE) 04:22:13 145.980
AIST 2 29 Sep 04:21:53 04:25:57 68° 304° (WNW) 04:30:07 435.215
Oscar 19 29 Sep 04:21:59 04:24:46 15° 300° (WNW) 04:27:33 437.125/150
YUBILEINY 29 Sep 04:31:20 04:39:46 49° 285° (WNW) 04:48:13 435.215
RS-15 29 Sep 04:35:13 04:47:28 60° 48° (NE) 04:59:28 29.354- 29.394
Cosmos 2504 29 Sep 04:37:46 04:45:10 83° 96° (E) 04:52:22 435.465 / 435.565
STARS 29 Sep 04:37:57 04:42:16 59° 73° (ENE) 04:46:34 437.465
AO-7 29 Sep 04:56:26 05:04:45 70° 106° (ESE) 05:13:00 29.400- 29.500
CUSAT 1 29 Sep 05:05:23 05:11:05 22° 61° (ENE) 05:16:09 437.405
DANDE 29 Sep 05:06:46 05:09:50 12° 53° (NE) 05:12:53 436.750
CUBESAT XI-V 29 Sep 05:13:59 05:18:35 58° 74° (ENE) 05:23:14 437.345
PCSat 29 Sep 05:14:15 05:19:37 66° 302° (WNW) 05:25:02 145.827
ITAMSAT 1 29 Sep 05:16:22 05:20:57 32° 293° (WNW) 05:25:32 435.822/435.867
HORYU 2 29 Sep 05:19:52 05:22:28 15° 92° (E) 05:25:03 437.375
MOZHAYETS 4 29 Sep 05:30:45 05:33:02 14° 270° (W) 05:35:22
AIST 1 29 Sep 05:33:48 05:38:09 66° 95° (E) 05:42:30
KKS-1 29 Sep 05:46:49 05:48:57 13° 269° (W) 05:51:04 437.445
BRITE-PL 29 Sep 05:55:38 05:59:17 22° 92° (E) 06:02:43 437.365/2234.400
AO-85 29 Sep 05:59:07 06:03:17 64° 55° (NE) 06:07:09 145.980
AIST 2 29 Sep 06:04:23 06:05:15 11° 324° (NW) 06:06:06 435.215
STARS 29 Sep 06:17:03 06:18:58 13° 269° (W) 06:20:53 437.465
Cosmos 2504 29 Sep 06:34:51 06:39:26 17° 296° (WNW) 06:44:00 435.465 / 435.565
NOAA 18 29 Sep 06:38:11 06:41:52 18° 92° (E) 06:45:32 137.9125
CUSAT 1 29 Sep 06:46:24 06:54:07 78° 264° (W) 07:00:27 437.405
DANDE 29 Sep 06:46:24 06:54:38 54° 74° (ENE) 07:02:13 436.750
RS-15 29 Sep 06:48:18 06:59:40 46° 252° (WSW) 07:10:46 29.354- 29.394
STRAND 1 29 Sep 06:48:40 06:53:03 30° 66° (ENE) 06:57:27 437.568
AO-7 29 Sep 06:50:07 06:56:51 29° 305° (NW) 07:03:34 29.400- 29.500
CUBESAT XI-V 29 Sep 06:53:44 06:56:19 15° 270° (W) 06:58:57 437.345
HORYU 2 29 Sep 06:54:58 06:59:18 51° 288° (WNW) 07:03:37 437.375
PCSat 29 Sep 07:01:34 07:04:06 13° 323° (NW) 07:06:38 145.827
LilacSat-2 29 Sep 07:02:59 07:06:35 38° 98° (E) 07:10:11 437.200
NOAA 15 29 Sep 07:04:07 07:09:15 48° 100° (E) 07:14:20 137.62
GONETS M04 29 Sep 07:05:05 07:06:59 11° 72° (ENE) 07:08:53
AIST 1 29 Sep 07:14:48 07:16:13 11° 292° (WNW) 07:17:38
GOMX 1 29 Sep 07:15:37 07:19:58 61° 100° (E) 07:24:06 467.674
